Location: Unspecified
(43.4680°N, 87.1740°E)
Time: 21:30:18
(UTC+00:00)

BREEZE M DEB (TANK) - Pass Details

Date: 17 April 2021
Orbit: 342 x 13618 km, 49.6° (Epoch: 12 May)

Event Time Altitude Azimuth Distance (km) Brightness Sun altitude
Exits shadow 16:08:03 51° 235° (SW) 1,134 4.2 -29.0°
Maximum altitude 16:09:29 87° 151° (SSE) 1,109 4.1 -29.2°
Drops below altitude 10° 16:24:20 10° 64° (ENE) 6,729 8.2 -30.6°
Sets 16:34:01 0° 65° (ENE) 9,968 9.2 -31.5°
